When you browse on this site, cookies collect data to enhance your experience and personalize the content and advertising you see.
Visit our Privacy Policy to learn more. By continuing to use the site, you agree to this use of cookies and data.
  • en Suisse
  • Liste des pays
  • À 7 jours
  • Température de l'eau
  • Carte météo
  • Widgets météo
  • user-avatar
    Se connecter

    Météo par heure à Békéscsaba

    Ce jour, 30 Mars, Lundi

    Heure Température Précipitation Vent Pression Humidité
    00:00 +8°C° 0 mm 3 m/s 750 mmHg 76%
    01:00 +8°C° 0 mm 3 m/s 751 mmHg 78%
    02:00 +7°C° 0 mm 4 m/s 751 mmHg 78%
    03:00 +6°C° 0 mm 4 m/s 751 mmHg 78%
    04:00 +6°C° 0 mm 4 m/s 751 mmHg 78%
    05:00 +6°C° 0 mm 5 m/s 751 mmHg 77%
    06:00 +5°C° 0 mm 6 m/s 752 mmHg 76%
    07:00 +5°C° 0 mm 6 m/s 752 mmHg 75%
    08:00 +5°C° 0 mm 6 m/s 753 mmHg 71%
    09:00 +5°C° 0 mm 6 m/s 753 mmHg 67%
    10:00 +5°C° 0 mm 6 m/s 753 mmHg 63%
    11:00 +7°C° 0 mm 6 m/s 754 mmHg 61%
    12:00 +7°C° 0 mm 6 m/s 754 mmHg 59%
    13:00 +7°C° 0 mm 6 m/s 754 mmHg 57%
    14:00 +7°C° 0 mm 6 m/s 754 mmHg 56%
    15:00 +5°C° 0 mm 6 m/s 754 mmHg 55%
    16:00 +5°C° 0 mm 6 m/s 754 mmHg 54%
    17:00 +4°C° 0 mm 6 m/s 754 mmHg 53%
    18:00 +3°C° 0 mm 5 m/s 755 mmHg 53%
    19:00 +2°C° 0 mm 5 m/s 755 mmHg 52%
    20:00 +2°C° 0 mm 5 m/s 756 mmHg 52%
    21:00 +1°C° 0 mm 6 m/s 756 mmHg 52%
    22:00 -1°C° 0 mm 6 m/s 757 mmHg 52%
    23:00 -1°C° 0 mm 6 m/s 757 mmHg 52%

    Demain, 31 Mars, Mardi

    Heure Température Précipitation Vent Pression Humidité
    00:00 0°C° 0 mm 5 m/s 757 mmHg 51%
    01:00 -1°C° 0 mm 5 m/s 757 mmHg 51%
    02:00 -1°C° 0 mm 5 m/s 757 mmHg 52%
    03:00 -2°C° 0 mm 4 m/s 757 mmHg 54%
    04:00 -2°C° 0 mm 4 m/s 757 mmHg 55%
    05:00 -2°C° 0 mm 5 m/s 758 mmHg 54%
    06:00 -2°C° 0 mm 6 m/s 758 mmHg 54%
    07:00 -1°C° 0 mm 6 m/s 758 mmHg 53%
    08:00 +1°C° 0 mm 6 m/s 758 mmHg 50%
    09:00 +2°C° 0 mm 6 m/s 758 mmHg 47%
    10:00 +4°C° 0 mm 6 m/s 758 mmHg 44%
    11:00 +4°C° 0 mm 6 m/s 758 mmHg 41%
    12:00 +5°C° 0 mm 6 m/s 758 mmHg 39%
    13:00 +7°C° 0 mm 6 m/s 758 mmHg 36%
    14:00 +7°C° 0 mm 6 m/s 757 mmHg 36%
    15:00 +5°C° 0 mm 6 m/s 757 mmHg 36%
    16:00 +6°C° 0 mm 5 m/s 757 mmHg 36%
    17:00 +5°C° 0 mm 5 m/s 757 mmHg 41%
    18:00 +3°C° 0 mm 4 m/s 758 mmHg 46%
    19:00 +2°C° 0 mm 3 m/s 758 mmHg 52%
    20:00 +1°C° 0 mm 3 m/s 758 mmHg 52%
    21:00 +1°C° 0 mm 3 m/s 758 mmHg 52%
    22:00 0°C° 0 mm 3 m/s 759 mmHg 52%
    23:00 -1°C° 0 mm 3 m/s 759 mmHg 52%

    Après-demain, 1 Avril, Mercredi

    Heure Température Précipitation Vent Pression Humidité
    00:00 -1°C° 0 mm 3 m/s 759 mmHg 53%
    01:00 -1°C° 0 mm 3 m/s 759 mmHg 54%
    02:00 -2°C° 0 mm 3 m/s 759 mmHg 55%
    03:00 -2°C° 0 mm 3 m/s 759 mmHg 56%
    04:00 -2°C° 0 mm 3 m/s 759 mmHg 57%
    05:00 -1°C° 0 mm 3 m/s 759 mmHg 54%
    06:00 0°C° 0 mm 3 m/s 759 mmHg 52%
    07:00 +1°C° 0 mm 3 m/s 759 mmHg 50%
    08:00 +2°C° 0 mm 3 m/s 759 mmHg 44%
    09:00 +4°C° 0 mm 3 m/s 759 mmHg 39%
    10:00 +7°C° 0 mm 3 m/s 759 mmHg 34%
    11:00 +7°C° 0 mm 3 m/s 759 mmHg 32%
    12:00 +8°C° 0 mm 3 m/s 758 mmHg 31%
    13:00 +8°C° 0 mm 3 m/s 758 mmHg 29%
    14:00 +8°C° 0 mm 3 m/s 758 mmHg 30%
    15:00 +8°C° 0 mm 3 m/s 757 mmHg 30%
    16:00 +8°C° 0 mm 3 m/s 756 mmHg 31%
    17:00 +6°C° 0 mm 2 m/s 757 mmHg 34%
    18:00 +5°C° 0 mm 2 m/s 757 mmHg 38%
    19:00 +4°C° 0 mm 1 m/s 757 mmHg 41%
    20:00 +4°C° 0 mm 1 m/s 757 mmHg 41%
    21:00 +3°C° 0 mm 1 m/s 757 mmHg 41%
    22:00 +2°C° 0 mm 0 m/s 757 mmHg 41%
    23:00 +1°C° 0 mm 0 m/s 757 mmHg 42%

    2 Avril, Jeudi

    Heure Température Précipitation Vent Pression Humidité
    00:00 +1°C° 0 mm 0 m/s 757 mmHg 42%
    01:00 +1°C° 0 mm 0 m/s 756 mmHg 43%
    02:00 +2°C° 0 mm 1 m/s 756 mmHg 44%
    03:00 +1°C° 0 mm 1 m/s 756 mmHg 45%
    04:00 +1°C° 0 mm 1 m/s 756 mmHg 46%
    05:00 +2°C° 0 mm 1 m/s 756 mmHg 46%
    06:00 +3°C° 0 mm 1 m/s 756 mmHg 47%
    07:00 +4°C° 0 mm 1 m/s 756 mmHg 47%
    08:00 +6°C° 0 mm 1 m/s 756 mmHg 43%
    09:00 +7°C° 0 mm 1 m/s 756 mmHg 38%
    10:00 +9°C° 0 mm 1 m/s 755 mmHg 34%
    11:00 +9°C° 0 mm 2 m/s 755 mmHg 33%
    12:00 +9°C° 0 mm 2 m/s 755 mmHg 32%
    13:00 +10°C° 0 mm 2 m/s 754 mmHg 31%
    14:00 +10°C° 0 mm 2 m/s 754 mmHg 31%
    15:00 +11°C° 0 mm 1 m/s 754 mmHg 32%
    16:00 +11°C° 0 mm 1 m/s 753 mmHg 32%
    17:00 +10°C° 0 mm 1 m/s 753 mmHg 35%
    18:00 +8°C° 0 mm 1 m/s 753 mmHg 39%
    19:00 +6°C° 0 mm 0 m/s 753 mmHg 42%
    20:00 +6°C° 0 mm 1 m/s 753 mmHg 43%
    21:00 +6°C° 0 mm 1 m/s 753 mmHg 45%
    22:00 +5°C° 0 mm 1 m/s 753 mmHg 46%
    23:00 +4°C° 0 mm 2 m/s 753 mmHg 48%

    3 Avril, Vendredi

    Heure Température Précipitation Vent Pression Humidité
    00:00 +3°C° 0 mm 2 m/s 753 mmHg 51%
    01:00 +3°C° 0 mm 2 m/s 753 mmHg 53%
    02:00 +3°C° 0 mm 2 m/s 753 mmHg 57%
    03:00 +2°C° 0 mm 2 m/s 752 mmHg 60%
    04:00 +2°C° 0 mm 2 m/s 752 mmHg 64%
    05:00 +3°C° 0 mm 2 m/s 753 mmHg 65%
    06:00 +4°C° 0 mm 2 m/s 753 mmHg 66%
    07:00 +5°C° 0 mm 2 m/s 753 mmHg 67%
    08:00 +7°C° 0 mm 3 m/s 753 mmHg 62%
    09:00 +9°C° 0 mm 3 m/s 753 mmHg 57%
    10:00 +11°C° 0 mm 3 m/s 753 mmHg 51%
    11:00 +12°C° 0 mm 3 m/s 752 mmHg 49%
    12:00 +13°C° 0 mm 4 m/s 752 mmHg 46%
    13:00 +14°C° 0 mm 4 m/s 752 mmHg 44%
    14:00 +14°C° 0 mm 4 m/s 752 mmHg 45%
    15:00 +14°C° 0 mm 4 m/s 752 mmHg 46%
    16:00 +14°C° 0 mm 4 m/s 752 mmHg 47%
    17:00 +12°C° 0 mm 3 m/s 752 mmHg 53%
    18:00 +11°C° 0 mm 3 m/s 752 mmHg 59%
    19:00 +9°C° 0 mm 3 m/s 753 mmHg 64%
    20:00 +8°C° 0 mm 2 m/s 753 mmHg 66%
    21:00 +8°C° 0 mm 2 m/s 754 mmHg 67%
    22:00 +7°C° 0 mm 2 m/s 755 mmHg 69%
    23:00 +7°C° 0 mm 3 m/s 755 mmHg 70%

    4 Avril, Samedi

    Heure Température Précipitation Vent Pression Humidité
    00:00 +5°C° 0 mm 3 m/s 755 mmHg 72%
    01:00 +5°C° 0 mm 3 m/s 756 mmHg 73%
    02:00 +4°C° 0 mm 3 m/s 756 mmHg 75%
    03:00 +4°C° 0 mm 3 m/s 757 mmHg 78%
    04:00 +3°C° 0 mm 3 m/s 757 mmHg 80%
    05:00 +4°C° 0 mm 3 m/s 758 mmHg 78%
    06:00 +5°C° 0 mm 2 m/s 759 mmHg 76%
    07:00 +6°C° 0 mm 2 m/s 759 mmHg 74%
    08:00 +7°C° 0 mm 2 m/s 760 mmHg 67%
    09:00 +9°C° 0 mm 2 m/s 760 mmHg 59%
    10:00 +10°C° 0 mm 2 m/s 761 mmHg 52%
    11:00 +12°C° 0 mm 2 m/s 761 mmHg 49%
    12:00 +12°C° 0 mm 2 m/s 761 mmHg 47%
    13:00 +13°C° 0 mm 2 m/s 761 mmHg 44%
    14:00 +12°C° 0 mm 3 m/s 761 mmHg 45%
    15:00 +12°C° 0 mm 3 m/s 761 mmHg 45%
    16:00 +12°C° 0 mm 3 m/s 761 mmHg 46%
    17:00 +10°C° 0 mm 3 m/s 762 mmHg 51%
    18:00 +8°C° 0 mm 2 m/s 762 mmHg 57%
    19:00 +7°C° 0 mm 2 m/s 763 mmHg 63%
    20:00 +6°C° 0 mm 2 m/s 763 mmHg 64%
    21:00 +6°C° 0 mm 2 m/s 764 mmHg 65%
    22:00 +5°C° 0 mm 2 m/s 765 mmHg 66%
    23:00 +3°C° 0 mm 3 m/s 765 mmHg 66%
    Voir plus